This is the latest recevied weather packets stored in our database for station/object JE0GNV-13. If no packets are shown the sender has not sent any weather packets the latest 10 day(s).
| Time | Temp. | Humidity | Pressure | Rain* | Wind** | Luminosity | Snow |
|---|---|---|---|---|---|---|---|
| 1777619400 | 16.11° C | 94% | 992.4 hPa | 1.02 mm | - | - | - |
| 1777618801 | 15.56° C | 93% | 992.7 hPa | 1.02 mm | - | - | - |
| 1777618200 | 15.56° C | 95% | 993.3 hPa | 1.02 mm | - | - | - |
| 1777617601 | 15.56° C | 95% | 993.4 hPa | 0.76 mm | - | - | - |
| 1777617001 | 15° C | 96% | 993.8 hPa | 1.27 mm | - | - | - |
| 1777616400 | 15° C | 97% | 994 hPa | 0.51 mm | - | - | - |
| 1777615800 | 14.44° C | 97% | 994 hPa | 0.51 mm | - | - | - |
| 1777615200 | 14.44° C | 97% | 994.4 hPa | 0.51 mm | - | - | - |
| 1777614600 | 14.44° C | 97% | 994.8 hPa | 0.51 mm | - | - | - |
| 1777614000 | 13.89° C | 97% | 994.9 hPa | 0.51 mm | - | - | - |
| 1777613401 | 13.89° C | 96% | 995.5 hPa | 0 mm | - | - | - |
| 1777612800 | 13.89° C | 96% | 995.4 hPa | 0 mm | - | - | - |
| 1777612200 | 13.33° C | 96% | 995.4 hPa | 0 mm | - | - | - |
| 1777611600 | 13.33° C | 96% | 995.7 hPa | 0 mm | - | - | - |
| 1777611001 | 13.33° C | 96% | 996.1 hPa | 0 mm | - | - | - |
| 1777610400 | 13.33° C | 96% | 996.2 hPa | 0 mm | - | - | - |
| 1777609800 | 13.33° C | 96% | 996.6 hPa | 0 mm | - | - | - |
| 1777609202 | 13.33° C | 96% | 996.8 hPa | 0 mm | - | - | - |
| 1777608601 | 13.33° C | 95% | 996.9 hPa | 0.25 mm | - | - | - |
| 1777608000 | 13.33° C | 95% | 997.2 hPa | 0.25 mm | - | - | - |
| 1777607401 | 13.33° C | 96% | 997.7 hPa | 0.25 mm | - | - | - |
| 1777606801 | 13.33° C | 96% | 997.8 hPa | 0.25 mm | - | - | - |
| 1777606202 | 13.33° C | 96% | 997.9 hPa | 0.25 mm | - | - | - |
| 1777605601 | 13.33° C | 97% | 998.3 hPa | 0.25 mm | - | - | - |
| 1777605000 | 13.33° C | 96% | 998.4 hPa | 0 mm | - | - | - |
* Rain latest hour (hover to see other rain measurements)
** Current wind speed in m/s (hover to see current wind gust speed)